sat.trackr.live / text

‹ back to catalog

UNKNOWN

NORAD 81779

UNKNOWN UNKNOWN UNKNOWN

§ Identity

Operator
Country
Launch date
Launch site
Launch vehicle
Mass (kg)
RCS (m²)

External: N2YO · Heavens-Above

§ Orbital elements

Epoch: 2026-05-29T19:51:25.053120Z

Period
153.96 min
Inclination
54.5230°
Eccentricity
0.1529607
Mean motion
9.35320893 rev/d
Perigee alt
1,681.8 km
Apogee alt
4,592.8 km
Semi-major
9,515.4 km
B*
1.3139e+0
RAAN
319.1885°
Arg perigee
195.6109°
Mean anomaly
159.1886°
Rev number
49,602

§ Raw data

UNKNOWN1 81779U          26149.82737330  .00023200  00000+0  13139+1 0  99902 81779  54.5230 319.1885 1529607 195.6109 159.1886  9.35320893496020

JSON: /api/v1/satellites/81779 · /tle

For live sub-satellite position, see the globe view (requires WebGL).

§ Visibility from observer

Set your observer location to see the next 7 days of passes ≥ 10°. The values pass through the URL so the page stays shareable.

No JS? Fill the form by hand. The geolocation button needs JavaScript.